This demonstration page uses our WeatherBlox Daily Observations layout. Learn more.

Left ArrowRight Arrow

Hourly Observations for May 9, 2015

Temp ( °F °C ) Dew Point ( °F °C ) Humidity (%) Winds ( mph kmh ) Pressure ( in mb ) Visibility ( mi km ) Precip ( " mm )
12:53 am 00:53 Clear 62 16.7 57 13.9 84 84 Calm 30.02 1017 10 16 0.00 0.00
1:53 am 01:53 Clear 63 17.2 57 13.9 81 81 Calm 30.03 1017 10 16 0.00 0.00
2:53 am 02:53 Partly Cloudy 64 17.8 58 14.4 81 81 Calm 30.04 1017 10 16 0.00 0.00
3:53 am 03:53 Partly Cloudy 64 17.8 58 14.4 81 81 W 3 6 30.04 1017 10 16 0.00 0.00
4:53 am 04:53 Partly Cloudy 63 17.2 59 15 87 87 Calm 30.06 1018 10 16 0.00 0.00
5:53 am 05:53 Mostly Cloudy 65 18.3 60 15.6 84 84 Calm 30.08 1019 10 16 0.00 0.03
6:53 am 06:53 Cloudy with Light Rain 64 17.8 61 16.1 90 90 Calm 30.10 1019 9 14 0.00 0.03
7:53 am 07:53 Cloudy 65 18.3 63 17.2 93 93 Calm 30.09 1019 7 11 0.01 0.25
8:53 am 08:53 Sunny 70 21.1 64 17.8 82 82 Calm 30.10 1019 9 14 0.00 0.00
9:53 am 09:53 Mostly Sunny 76 24.4 63 17.2 64 64 SSE 3 6 30.09 1019 10 16 0.00 0.00
10:53 am 10:53 Sunny 79 26.1 62 16.7 56 56 S 5 7 30.08 1019 10 16 0.00 0.00
11:53 am 11:53 Sunny 83 28.3 62 16.7 49 49 VRB 3 6 30.07 1018 10 16 0.00 0.00
12:53 pm 12:53 Partly Cloudy 86 30 62 16.7 45 45 undefined N/A 30.07 1018 10 16 0.00 0.00
1:53 pm 13:53 Sunny 87 30.6 59 15 39 39 SSW 14 22 30.05 1018 10 16 0.00 0.00
2:53 pm 14:53 Sunny 87 30.6 60 15.6 40 40 W 9 15 30.03 1017 10 16 0.00 0.00
3:53 pm 15:53 Partly Cloudy 89 31.7 60 15.6 38 38 VRB 6 9 30.01 1016 10 16 0.00 0.00
4:53 pm 16:53 Partly Cloudy 85 29.4 60 15.6 43 43 SSW 6 9 30.01 1016 10 16 0.00 0.00
5:53 pm 17:53 Sunny 87 30.6 57 13.9 36 36 VRB 6 9 30.00 1016 10 16 0.00 0.00
6:53 pm 18:53 Mostly Sunny 84 28.9 59 15 43 43 SW 6 9 30.01 1016 10 16 0.00 0.00
7:53 pm 19:53 Mostly Sunny 81 27.2 61 16.1 51 51 W 5 7 30.02 1017 10 16 0.00 0.00
8:53 pm 20:53 Mostly Cloudy 74 23.3 64 17.8 71 71 Calm 30.02 1017 10 16 0.00 0.00
9:53 pm 21:53 Clear 74 23.3 65 18.3 74 74 N 5 7 30.05 1018 10 16 0.00 0.03
10:53 pm 22:53 Clear 71 21.7 65 18.3 81 81 Calm 30.07 1018 10 16 0.00 0.00
11:53 pm 23:53 Clear 71 21.7 64 17.8 79 79 Calm 30.06 1018 10 16 0.00 0.00

Powered by AerisWeather